Precipitable_Water
0.73 0.69 0.66 0.58 0.49 0.50 0.50 0.42 0.22 0.52 0.55 0.21 0.23 0.19 0.24 0.30 0.28 0.36 0.32 0.31 0.27 0.25 0.27 0.24 0.23 0.21 0.25 0.32 0.28 0.20 0.25 0.19 0.11 0.13 0.24 0.27 0.25 0.20 0.21 0.13 0.10 0.15 0.13 0.09
0.73 0.71 0.75 0.71 0.64 0.48 0.41 0.29 0.31 0.53 0.44 0.14 0.18 0.26 0.26 0.29 0.29 0.30 0.29 0.27 0.30 0.30 0.24 0.18 0.22 0.23 0.31 0.31 0.26 0.23 0.26 0.16 0.08 0.09 0.18 0.25 0.21 0.22 0.23 0.22 0.20 0.14 0.11 0.08
0.76 0.73 0.73 0.74 0.74 0.67 0.49 0.28 0.16 0.29 0.32 0.31 0.24 0.22 0.23 0.23 0.33 0.30 0.31 0.28 0.29 0.25 0.22 0.25 0.20 0.21 0.27 0.30 0.28 0.31 0.29 0.18 0.12 0.07 0.08 0.15 0.15 0.18 0.22 0.22 0.17 0.15 0.13 0.12
0.76 0.76 0.70 0.75 0.75 0.74 0.56 0.37 0.22 0.28 0.17 0.22 0.25 0.25 0.24 0.20 0.20 0.30 0.30 0.25 0.24 0.22 0.18 0.20 0.19 0.22 0.26 0.30 0.32 0.30 0.26 0.15 0.17 0.17 0.18 0.19 0.18 0.18 0.19 0.19 0.20 0.16 0.12 0.15
0.73 0.74 0.73 0.71 0.72 0.74 0.54 0.42 0.37 0.31 0.24 0.26 0.23 0.23 0.21 0.19 0.23 0.23 0.21 0.21 0.24 0.25 0.19 0.20 0.17 0.22 0.23 0.21 0.30 0.29 0.32 0.18 0.22 0.17 0.20 0.22 0.19 0.21 0.21 0.21 0.22 0.22 0.21 0.18
0.72 0.72 0.73 0.71 0.70 0.70 0.57 0.59 0.59 0.46 0.35 0.23 0.17 0.19 0.23 0.23 0.25 0.25 0.27 0.26 0.24 0.21 0.23 0.28 0.29 0.30 0.29 0.28 0.25 0.26 0.27 0.25 0.21 0.14 0.21 0.20 0.14 0.16 0.19 0.20 0.23 0.22 0.17 0.19
0.72 0.72 0.72 0.72 0.73 0.69 0.68 0.68 0.63 0.49 0.41 0.40 0.29 0.26 0.23 0.21 0.23 0.22 0.27 0.29 0.25 0.27 0.35 0.32 0.28 0.26 0.26 0.27 0.28 0.33 0.27 0.27 0.25 0.18 0.19 0.10 0.16 0.23 0.23 0.21 0.22 0.25 0.25 0.24
0.71 0.69 0.72 0.73 0.73 0.73 0.65 0.71 0.64 0.54 0.47 0.49 0.43 0.42 0.34 0.26 0.26 0.26 0.23 0.27 0.31 0.37 0.32 0.23 0.18 0.17 0.21 0.24 0.28 0.29 0.33 0.28 0.21 0.17 0.16 0.16 0.16 0.20 0.21 0.21 0.19 0.25 0.25 0.27
0.71 0.71 0.71 0.74 0.75 0.73 0.69 0.68 0.73 0.62 0.49 0.48 0.52 0.52 0.52 0.45 0.41 0.35 0.33 0.41 0.44 0.38 0.28 0.22 0.15 0.13 0.16 0.16 0.21 0.32 0.32 0.34 0.27 0.26 0.21 0.18 0.23 0.29 0.37 0.39 0.25 0.28 0.30 0.31
0.70 0.73 0.73 0.73 0.75 0.75 0.68 0.66 0.74 0.65 0.52 0.56 0.53 0.51 0.51 0.57 0.52 0.47 0.52 0.53 0.50 0.51 0.34 0.29 0.29 0.28 0.33 0.26 0.25 0.30 0.33 0.35 0.31 0.33 0.32 0.36 0.40 0.39 0.46 0.31 0.30 0.37 0.39 0.37
0.73 0.74 0.76 0.76 0.75 0.75 0.71 0.66 0.74 0.65 0.57 0.60 0.63 0.60 0.54 0.57 0.57 0.48 0.52 0.51 0.51 0.47 0.38 0.36 0.35 0.37 0.40 0.40 0.41 0.40 0.36 0.35 0.34 0.36 0.33 0.29 0.43 0.41 0.33 0.37 0.42 0.43 0.42 0.41
0.79 0.79 0.79 0.81 0.79 0.77 0.73 0.60 0.72 0.73 0.59 0.56 0.67 0.67 0.68 0.63 0.60 0.55 0.53 0.48 0.52 0.53 0.44 0.43 0.43 0.37 0.40 0.39 0.34 0.45 0.36 0.38 0.32 0.34 0.34 0.41 0.42 0.42 0.44 0.45 0.43 0.44 0.42 0.41
0.82 0.82 0.82 0.84 0.86 0.83 0.80 0.70 0.72 0.68 0.55 0.54 0.55 0.56 0.66 0.70 0.70 0.70 0.50 0.53 0.54 0.53 0.58 0.49 0.45 0.37 0.42 0.34 0.36 0.39 0.43 0.43 0.36 0.34 0.38 0.39 0.41 0.44 0.45 0.46 0.45 0.45 0.45 0.44
0.87 0.87 0.85 0.85 0.88 0.88 0.85 0.76 0.78 0.70 0.60 0.44 0.49 0.64 0.60 0.68 0.67 0.66 0.66 0.61 0.63 0.61 0.58 0.48 0.43 0.39 0.45 0.38 0.38 0.36 0.40 0.40 0.36 0.35 0.38 0.39 0.42 0.45 0.45 0.45 0.46 0.45 0.46 0.46
0.91 0.90 0.86 0.84 0.85 0.86 0.85 0.82 0.79 0.77 0.61 0.44 0.47 0.58 0.62 0.65 0.65 0.64 0.65 0.63 0.59 0.54 0.48 0.45 0.42 0.48 0.45 0.45 0.42 0.37 0.42 0.37 0.33 0.31 0.40 0.41 0.42 0.46 0.46 0.43 0.42 0.42 0.40 0.42
0.90 0.87 0.85 0.83 0.83 0.83 0.74 0.59 0.72 0.76 0.75 0.57 0.44 0.58 0.53 0.57 0.58 0.58 0.58 0.59 0.59 0.57 0.51 0.48 0.49 0.53 0.46 0.37 0.33 0.41 0.44 0.45 0.45 0.40 0.45 0.45 0.42 0.40 0.40 0.39 0.41 0.42 0.42 0.44
0.85 0.83 0.83 0.82 0.82 0.79 0.64 0.60 0.70 0.76 0.73 0.56 0.46 0.44 0.56 0.59 0.58 0.56 0.56 0.59 0.57 0.55 0.51 0.47 0.47 0.47 0.48 0.41 0.33 0.41 0.44 0.46 0.46 0.45 0.41 0.34 0.35 0.35 0.41 0.42 0.43 0.45 0.45 0.46
0.75 0.78 0.75 0.74 0.75 0.72 0.61 0.68 0.73 0.74 0.60 0.56 0.43 0.40 0.44 0.52 0.45 0.44 0.52 0.47 0.50 0.49 0.48 0.50 0.46 0.47 0.47 0.37 0.42 0.44 0.44 0.43 0.40 0.40 0.42 0.41 0.43 0.43 0.42 0.42 0.42 0.40 0.39 0.40
0.68 0.69 0.65 0.60 0.55 0.48 0.51 0.64 0.65 0.64 0.55 0.42 0.41 0.34 0.30 0.47 0.42 0.44 0.45 0.48 0.39 0.48 0.42 0.43 0.46 0.41 0.35 0.41 0.44 0.42 0.43 0.43 0.43 0.44 0.44 0.43 0.42 0.43 0.42 0.40 0.39 0.35 0.35 0.36
0.65 0.58 0.45 0.38 0.50 0.63 0.60 0.53 0.44 0.44 0.46 0.46 0.35 0.38 0.32 0.38 0.37 0.36 0.36 0.40 0.35 0.31 0.36 0.44 0.35 0.32 0.38 0.41 0.42 0.39 0.37 0.37 0.36 0.32 0.33 0.36 0.38 0.39 0.40 0.41 0.43 0.43 0.42 0.39
0.48 0.40 0.37 0.50 0.62 0.51 0.43 0.34 0.33 0.37 0.32 0.37 0.36 0.36 0.32 0.43 0.32 0.33 0.40 0.34 0.33 0.24 0.27 0.27 0.26 0.24 0.27 0.29 0.30 0.34 0.36 0.36 0.36 0.36 0.33 0.33 0.32 0.32 0.35 0.35 0.38 0.41 0.43 0.44
0.49 0.48 0.53 0.50 0.39 0.35 0.30 0.30 0.33 0.29 0.25 0.33 0.31 0.37 0.41 0.42 0.46 0.39 0.39 0.29 0.28 0.19 0.31 0.25 0.20 0.19 0.27 0.29 0.33 0.37 0.38 0.38 0.38 0.37 0.34 0.34 0.35 0.34 0.31 0.29 0.31 0.33 0.36 0.38
0.49 0.40 0.35 0.31 0.30 0.23 0.22 0.19 0.23 0.24 0.31 0.37 0.37 0.33 0.37 0.38 0.36 0.31 0.29 0.23 0.21 0.30 0.22 0.18 0.18 0.20 0.27 0.32 0.33 0.36 0.37 0.35 0.33 0.32 0.31 0.29 0.30 0.32 0.31 0.28 0.27 0.28 0.29 0.30
0.32 0.27 0.20 0.20 0.18 0.20 0.21 0.21 0.23 0.30 0.34 0.34 0.36 0.33 0.31 0.33 0.28 0.28 0.21 0.25 0.27 0.20 0.17 0.15 0.18 0.25 0.26 0.27 0.31 0.31 0.29 0.30 0.28 0.27 0.27 0.26 0.24 0.22 0.24 0.23 0.25 0.25 0.24 0.27
0.28 0.26 0.16 0.17 0.21 0.23 0.25 0.27 0.28 0.32 0.36 0.35 0.33 0.32 0.31 0.26 0.24 0.25 0.25 0.22 0.18 0.19 0.15 0.17 0.23 0.27 0.28 0.28 0.28 0.28 0.28 0.26 0.22 0.17 0.15 0.16 0.17 0.16 0.18 0.21 0.23 0.25 0.25 0.25
0.33 0.29 0.21 0.23 0.20 0.19 0.21 0.23 0.26 0.34 0.34 0.35 0.34 0.27 0.24 0.22 0.23 0.21 0.20 0.18 0.14 0.13 0.16 0.20 0.23 0.23 0.24 0.24 0.25 0.23 0.21 0.18 0.16 0.17 0.18 0.17 0.16 0.17 0.18 0.22 0.24 0.28 0.29 0.29
0.30 0.25 0.29 0.26 0.23 0.21 0.21 0.23 0.24 0.32 0.30 0.23 0.25 0.19 0.17 0.22 0.19 0.17 0.19 0.14 0.14 0.19 0.21 0.23 0.21 0.21 0.22 0.22 0.18 0.16 0.16 0.16 0.17 0.17 0.18 0.19 0.20 0.20 0.21 0.20 0.23 0.30 0.33 0.35
Wind_Speed
26 25 22 18 15 12 13 14 13 14 14 14 15 15 15 14 14 14 14 13 13 12 11 10 10 9 8 9 8 6 4 4 3 5 3 4 5 6 5 5 8 9 9 12
26 25 23 19 15 10 9 10 11 12 11 12 12 12 13 12 12 11 11 11 11 10 9 9 8 7 6 7 5 5 3 2 1 3 3 3 5 6 7 6 7 9 7 11
24 25 24 21 16 10 9 7 7 9 10 10 10 10 9 9 8 9 9 9 8 8 7 6 6 5 4 4 4 3 2 2 3 3 3 4 7 8 9 9 7 9 14 20
22 24 24 22 17 12 9 8 6 5 5 6 7 6 6 6 6 5 5 5 5 5 5 4 3 3 3 2 2 1 1 4 4 8 11 11 14 13 11 13 16 11 17 16
20 22 23 22 20 12 11 7 5 6 4 3 3 4 2 3 3 3 2 2 2 2 2 2 2 1 2 2 2 3 4 6 7 10 11 10 13 14 15 16 17 19 22 24
18 19 20 21 21 14 11 9 7 4 4 4 3 2 1 1 1 1 1 1 1 3 5 5 6 6 6 6 5 6 6 6 7 8 9 14 10 8 8 8 10 11 14 17
16 17 18 18 18 16 12 10 8 6 4 4 3 2 2 3 4 4 4 4 5 6 6 8 9 10 11 10 11 9 7 6 7 10 11 7 8 9 9 10 12 14 16 16
15 15 16 16 16 14 12 11 9 7 6 5 5 5 5 5 5 5 5 6 6 6 7 7 7 6 6 6 7 10 10 7 9 8 9 15 9 8 7 9 16 12 14 17
16 16 15 15 15 15 12 12 10 9 8 7 6 7 7 7 7 8 7 6 7 6 5 5 5 6 6 6 6 6 7 9 9 9 9 10 10 10 10 13 14 11 13 20
18 17 16 15 15 15 13 12 13 10 9 9 9 8 8 7 8 9 10 9 8 8 7 7 8 8 8 8 8 7 7 9 12 11 11 14 14 12 13 11 13 16 20 23
20 19 18 17 17 16 16 14 14 13 13 14 11 12 11 11 10 9 9 9 10 9 8 8 9 9 10 10 10 10 10 8 10 8 11 13 10 11 13 18 22 24 26 27
23 22 21 20 19 19 18 17 18 18 16 17 17 18 16 15 13 12 11 11 10 11 10 12 11 13 14 13 14 13 13 13 12 13 14 19 19 21 23 25 27 28 29 30
25 24 24 23 22 21 21 20 21 20 19 21 16 16 18 17 17 17 15 16 16 16 16 15 15 16 15 14 15 14 16 17 18 19 20 24 25 27 27 28 30 31 32 32
27 27 26 26 25 24 23 23 22 21 20 20 17 14 14 17 19 20 22 22 19 18 18 19 19 18 17 17 18 18 19 20 23 27 29 28 24 26 30 32 35 36 36 35
28 28 28 28 27 26 26 26 25 24 21 22 23 23 23 23 24 23 23 24 24 24 24 22 22 21 22 24 23 22 21 24 25 27 28 30 34 37 38 39 37 36 38 38
29 30 30 29 28 27 26 25 22 21 21 24 23 21 22 23 23 23 24 24 24 24 23 23 24 25 24 25 25 24 27 27 29 31 33 38 40 39 37 38 41 41 40 39
30 30 29 28 28 27 25 24 24 23 24 23 24 22 20 19 19 20 20 21 22 23 25 26 27 26 26 29 28 30 28 30 31 32 32 33 32 36 39 39 40 40 40 39
30 29 29 28 27 26 25 26 25 24 23 22 21 21 20 19 20 21 22 23 24 25 27 27 28 28 28 30 29 28 29 29 28 28 30 33 35 37 38 38 38 39 38 37
29 28 28 27 26 26 25 25 25 25 24 22 21 21 22 19 19 20 21 22 24 25 26 26 25 26 26 27 27 28 28 28 30 32 33 34 34 36 37 36 35 33 34 35
28 27 26 25 25 25 25 25 25 25 25 26 26 24 24 22 22 21 21 21 21 22 23 22 24 26 30 30 29 27 28 28 29 30 33 35 38 38 38 37 37 36 36 36
28 27 27 27 27 27 26 26 25 24 25 25 25 24 23 23 22 23 22 22 23 24 24 24 26 26 25 22 22 24 27 29 30 32 35 37 39 40 40 40 40 40 40 39
28 28 28 27 27 27 26 26 26 26 26 25 23 22 21 22 21 21 22 24 24 26 25 26 27 25 25 25 27 28 30 33 35 36 39 41 42 42 43 43 44 43 43 42
29 28 28 27 27 28 28 27 25 24 23 23 23 23 21 22 24 25 25 26 28 27 29 30 30 25 27 29 31 35 37 39 40 42 43 44 45 46 46 47 46 46 45 43
29 28 29 28 27 28 28 27 26 26 23 22 22 24 25 26 26 27 28 30 28 29 29 32 29 29 27 29 34 39 42 42 44 46 48 49 49 49 48 46 45 45 44 43
30 30 30 32 31 29 27 27 27 27 26 26 26 27 28 29 30 30 29 28 29 28 27 28 29 31 35 38 41 44 45 46 48 50 51 51 50 49 48 46 45 43 44 44
33 34 34 33 31 31 32 30 29 29 29 29 29 29 30 33 31 32 32 33 35 35 35 37 40 43 45 47 49 51 53 55 57 54 52 52 51 49 49 47 45 44 43 43
36 37 38 36 35 33 32 31 32 32 32 32 31 32 35 32 33 34 35 38 40 41 44 46 49 52 55 56 57 57 56 56 56 55 54 54 52 50 48 47 46 44 43 43
Wind_Direction
27 28 28 30 35 49 53 57 60 59 68 70 76 83 88 93 89 91 96 99 102 108 111 110 113 123 122 134 133 131 136 145 194 219 244 255 263 264 269 291 286 287 298 294
23 24 25 26 29 38 46 53 57 57 67 74 74 80 82 84 89 88 91 94 94 101 106 104 110 115 112 128 127 128 137 115 10 338 328 291 271 273 277 294 303 277 292 290
19 20 21 22 23 31 38 42 45 49 62 70 82 84 82 84 84 88 90 95 94 96 96 100 109 116 120 135 133 137 123 189 220 235 277 297 283 280 271 266 287 291 266 292
14 16 17 18 19 26 25 29 35 44 45 49 67 71 85 86 86 84 91 90 100 107 103 106 120 124 122 140 185 219 244 272 270 281 281 282 277 276 272 258 260 269 289 288
7 10 12 14 15 18 22 22 25 27 35 27 40 33 69 92 74 92 85 101 98 138 150 172 189 157 220 240 261 240 279 287 300 289 288 287 286 278 269 269 270 275 282 287
356 2 6 9 13 15 16 13 9 7 349 10 15 322 303 280 326 303 270 236 269 269 262 262 263 261 266 266 252 254 267 283 310 286 307 307 298 286 267 284 284 282 281 288
342 350 356 2 7 12 11 6 360 355 330 320 305 311 321 297 287 281 279 264 265 278 282 285 280 276 272 265 263 260 264 276 288 294 315 309 293 292 288 273 294 279 290 298
325 334 342 349 355 357 3 359 354 347 333 311 301 287 283 288 296 284 279 281 279 285 293 289 293 286 279 276 269 255 259 264 288 290 295 299 299 306 311 300 306 295 280 301
313 319 325 332 337 343 338 347 342 338 329 310 304 301 287 279 279 287 273 278 279 288 290 288 276 271 281 277 277 296 261 265 265 287 289 285 294 301 309 313 308 300 301 308
301 306 311 315 320 324 323 323 328 318 314 302 298 292 290 283 283 278 279 272 276 277 274 272 267 274 270 276 270 272 280 274 261 267 282 288 287 283 305 316 304 310 307 305
292 295 299 302 304 308 310 306 314 312 302 295 286 286 284 285 279 278 275 282 274 272 263 264 266 266 273 280 272 271 265 265 265 265 276 283 290 304 289 297 301 303 304 303
284 288 291 293 295 297 298 297 301 301 293 290 288 282 276 273 272 270 272 278 273 265 270 268 268 271 276 272 278 273 274 262 270 258 272 287 291 291 295 299 299 301 302 304
280 283 285 288 288 289 291 292 294 295 293 291 287 280 274 269 264 267 268 274 276 273 270 268 271 270 273 273 273 272 272 269 274 283 287 283 290 293 294 297 298 299 300 300
277 280 282 284 286 285 285 287 289 289 287 286 282 285 272 267 273 269 266 270 270 271 270 271 271 272 268 271 275 274 273 277 277 281 289 292 289 297 297 296 297 298 298 298
275 277 280 282 283 283 283 284 284 282 277 278 280 281 278 276 274 270 267 265 266 268 270 271 270 272 274 275 277 277 274 275 277 282 290 288 294 296 295 296 296 298 299 299
274 277 278 278 280 281 284 284 283 277 277 282 281 278 278 280 276 272 271 267 265 263 264 267 270 272 274 277 277 282 280 281 283 286 290 293 294 294 294 295 297 298 297 296
272 275 275 276 277 278 278 278 281 277 281 283 281 279 278 276 274 274 272 269 267 266 268 269 272 275 274 277 280 284 284 285 287 289 293 295 298 299 301 299 299 299 297 296
271 272 273 274 274 274 276 276 274 275 280 280 279 277 278 279 276 274 274 272 272 271 271 273 274 276 276 279 279 284 286 289 290 293 293 293 297 302 305 303 301 301 300 299
270 270 270 271 271 272 274 275 274 271 272 276 275 278 280 277 278 278 278 276 276 276 274 275 275 277 276 277 281 284 289 289 290 295 295 296 298 301 305 308 308 306 304 304
264 267 268 269 270 271 273 273 274 272 271 270 274 275 275 275 276 277 278 278 277 278 277 278 278 280 279 278 278 282 287 292 295 297 301 302 302 303 304 304 304 303 303 304
262 263 265 267 269 271 271 271 270 271 274 273 274 270 272 271 274 277 277 279 279 279 279 278 283 286 285 282 281 285 289 291 294 297 299 300 300 301 301 303 304 303 302 302
259 262 264 266 268 268 268 268 270 269 272 271 270 268 268 274 274 274 276 278 280 280 281 282 285 292 282 279 278 285 292 294 295 298 302 304 303 303 302 300 300 300 299 299
259 262 263 264 263 262 265 265 268 270 269 268 269 270 267 273 276 277 277 277 276 282 281 283 285 292 289 276 280 287 292 294 295 297 300 302 301 300 300 300 299 298 298 296
256 257 259 258 262 263 262 263 267 266 267 264 265 271 273 273 275 275 277 277 278 279 281 285 289 283 285 288 285 291 292 294 295 296 298 298 299 299 299 298 298 296 296 296
253 255 257 259 260 261 264 264 265 266 267 267 270 272 271 272 273 273 275 275 275 279 284 289 287 287 290 290 290 291 291 292 294 297 297 297 297 297 297 297 297 296 296 295
254 254 258 260 262 264 264 264 267 267 266 268 271 271 272 271 270 269 269 273 274 282 283 285 287 289 289 290 291 291 292 294 295 295 295 295 296 295 295 294 295 294 295 295
254 257 256 258 260 261 264 266 267 265 266 268 269 268 267 274 272 273 274 276 281 282 284 285 287 288 289 290 291 292 292 292 292 292 292 292 292 292 292 292 293 291 293 294